Location: Arthez
(43.0833°N, 0.2500°W)
Time: 14:48:43
(UTC+00:00)

NOSS 3-1 (A) - Pass Details

Date: 10 December 2023
Orbit: 665 x 1546 km, 63.4° (Epoch: 18 February)

Event Time Altitude Azimuth Distance (km) Brightness Sun altitude
Exits shadow 04:27:20 19° 7° (N) 2,029 5.2 -30.8°
Drops below altitude 10° 04:29:33 10° 23° (NNE) 2,687 6.0 -30.4°
Sets 04:32:49 0° 35° (NE) 3,800 7.0 -29.8°
